When you browse on this site, cookies collect data to enhance your experience and personalize the content and advertising you see.
Visit our Privacy Policy to learn more. By continuing to use the site, you agree to this use of cookies and data.
EN

Hourly Weather Pivnivka

Today, 14 July, Tuesday

Time Temperature Precipitation Wind Pressure Humidity
00:00 +20°C° 0.2 mm 3 mps 741 mmHg 90%
01:00 +20°C° 0.3 mm 4 mps 741 mmHg 91%
02:00 +20°C° 0.3 mm 5 mps 741 mmHg 92%
03:00 +20°C° 0 mm 4 mps 741 mmHg 91%
04:00 +20°C° 0.2 mm 3 mps 741 mmHg 92%
05:00 +20°C° 0.2 mm 2 mps 741 mmHg 94%
06:00 +21°C° 0.2 mm 1 mps 741 mmHg 95%
07:00 +21°C° 0.4 mm 2 mps 741 mmHg 93%
08:00 +21°C° 0.4 mm 3 mps 741 mmHg 91%
09:00 +22°C° 0 mm 4 mps 741 mmHg 89%
10:00 +22°C° 0.5 mm 5 mps 741 mmHg 86%
11:00 +22°C° 0.5 mm 6 mps 741 mmHg 83%
12:00 +23°C° 0.5 mm 7 mps 741 mmHg 81%
13:00 +24°C° 0.1 mm 6 mps 742 mmHg 76%
14:00 +25°C° 0.1 mm 5 mps 742 mmHg 71%
15:00 +26°C° 0.1 mm 5 mps 742 mmHg 65%
16:00 +26°C° 0.2 mm 5 mps 742 mmHg 66%
17:00 +26°C° 0.2 mm 5 mps 742 mmHg 67%
18:00 +24°C° 0.2 mm 6 mps 743 mmHg 68%
19:00 +23°C° 0.1 mm 5 mps 743 mmHg 74%
20:00 +21°C° 0.1 mm 5 mps 744 mmHg 80%
21:00 +19°C° 0.1 mm 4 mps 744 mmHg 86%
22:00 +18°C° 0 mm 4 mps 744 mmHg 87%
23:00 +17°C° 0 mm 4 mps 744 mmHg 89%

Tomorrow, 15 July, Wednesday

Time Temperature Precipitation Wind Pressure Humidity
00:00 +16°C° 0 mm 5 mps 745 mmHg 90%
01:00 +15°C° 0 mm 5 mps 745 mmHg 89%
02:00 +15°C° 0 mm 5 mps 745 mmHg 87%
03:00 +15°C° 0 mm 5 mps 746 mmHg 85%
04:00 +15°C° 0 mm 5 mps 746 mmHg 85%
05:00 +15°C° 0 mm 6 mps 746 mmHg 85%
06:00 +15°C° 0 mm 6 mps 746 mmHg 85%
07:00 +16°C° 0 mm 6 mps 747 mmHg 84%
08:00 +16°C° 0 mm 6 mps 747 mmHg 82%
09:00 +17°C° 0 mm 6 mps 748 mmHg 80%
10:00 +19°C° 0.1 mm 6 mps 748 mmHg 77%
11:00 +20°C° 0.1 mm 6 mps 748 mmHg 73%
12:00 +21°C° 0.1 mm 6 mps 748 mmHg 69%
13:00 +21°C° 0.1 mm 6 mps 748 mmHg 65%
14:00 +22°C° 0.1 mm 6 mps 748 mmHg 60%
15:00 +23°C° 0.1 mm 6 mps 749 mmHg 56%
16:00 +23°C° 0 mm 6 mps 749 mmHg 56%
17:00 +23°C° 0 mm 5 mps 749 mmHg 56%
18:00 +22°C° 0 mm 4 mps 749 mmHg 56%
19:00 +21°C° 0 mm 4 mps 749 mmHg 61%
20:00 +19°C° 0 mm 3 mps 750 mmHg 67%
21:00 +18°C° 0 mm 2 mps 750 mmHg 72%
22:00 +17°C° 0 mm 2 mps 750 mmHg 73%
23:00 +17°C° 0 mm 2 mps 750 mmHg 74%

Day after tomorrow, 16 July, Thursday

Time Temperature Precipitation Wind Pressure Humidity
00:00 +16°C° 0 mm 3 mps 750 mmHg 76%
01:00 +16°C° 0 mm 3 mps 750 mmHg 77%
02:00 +16°C° 0 mm 3 mps 750 mmHg 78%
03:00 +14°C° 0 mm 3 mps 750 mmHg 79%
04:00 +14°C° 0 mm 3 mps 749 mmHg 79%
05:00 +16°C° 0 mm 3 mps 749 mmHg 80%
06:00 +16°C° 0 mm 3 mps 749 mmHg 80%
07:00 +18°C° 0 mm 3 mps 750 mmHg 74%
08:00 +20°C° 0 mm 4 mps 750 mmHg 67%
09:00 +21°C° 0 mm 4 mps 750 mmHg 61%
10:00 +22°C° 0 mm 5 mps 750 mmHg 57%
11:00 +23°C° 0 mm 5 mps 750 mmHg 53%
12:00 +25°C° 0 mm 5 mps 750 mmHg 50%
13:00 +25°C° 0 mm 5 mps 750 mmHg 49%
14:00 +25°C° 0 mm 5 mps 750 mmHg 48%
15:00 +25°C° 0 mm 5 mps 750 mmHg 47%
16:00 +25°C° 0 mm 4 mps 750 mmHg 49%
17:00 +23°C° 0 mm 4 mps 749 mmHg 51%
18:00 +24°C° 0 mm 3 mps 749 mmHg 53%
19:00 +21°C° 0 mm 3 mps 749 mmHg 59%
20:00 +19°C° 0 mm 2 mps 749 mmHg 65%
21:00 +19°C° 0 mm 1 mps 750 mmHg 71%
22:00 +18°C° 0 mm 1 mps 749 mmHg 72%
23:00 +16°C° 0 mm 1 mps 749 mmHg 73%

17 July, Friday

Time Temperature Precipitation Wind Pressure Humidity
00:00 +15°C° 0 mm 0 mps 749 mmHg 74%
01:00 +15°C° 0 mm 0 mps 749 mmHg 75%
02:00 +14°C° 0 mm 0 mps 749 mmHg 75%
03:00 +14°C° 0 mm 0 mps 749 mmHg 76%
04:00 +15°C° 0 mm 0 mps 750 mmHg 76%
05:00 +15°C° 0 mm 0 mps 750 mmHg 75%
06:00 +16°C° 0 mm 0 mps 750 mmHg 74%
07:00 +17°C° 0 mm 0 mps 750 mmHg 68%
08:00 +21°C° 0 mm 1 mps 750 mmHg 62%
09:00 +23°C° 0 mm 1 mps 750 mmHg 56%
10:00 +24°C° 0 mm 1 mps 750 mmHg 51%
11:00 +25°C° 0 mm 2 mps 750 mmHg 46%
12:00 +26°C° 0 mm 2 mps 750 mmHg 41%
13:00 +26°C° 0 mm 2 mps 750 mmHg 40%
14:00 +27°C° 0 mm 2 mps 750 mmHg 40%
15:00 +27°C° 0 mm 2 mps 750 mmHg 39%
16:00 +27°C° 0 mm 2 mps 750 mmHg 42%
17:00 +26°C° 0 mm 2 mps 750 mmHg 44%
18:00 +26°C° 0 mm 2 mps 750 mmHg 47%
19:00 +24°C° 0 mm 2 mps 750 mmHg 52%
20:00 +23°C° 0 mm 2 mps 750 mmHg 56%
21:00 +20°C° 0 mm 2 mps 750 mmHg 61%
22:00 +19°C° 0 mm 2 mps 750 mmHg 63%
23:00 +19°C° 0 mm 2 mps 750 mmHg 65%

18 July, Saturday

Time Temperature Precipitation Wind Pressure Humidity
00:00 +18°C° 0 mm 2 mps 751 mmHg 68%
01:00 +19°C° 0 mm 1 mps 751 mmHg 70%
02:00 +18°C° 0 mm 1 mps 751 mmHg 73%
03:00 +18°C° 0 mm 1 mps 751 mmHg 75%
04:00 +18°C° 0 mm 1 mps 751 mmHg 76%
05:00 +19°C° 0 mm 1 mps 752 mmHg 76%
06:00 +19°C° 0 mm 1 mps 752 mmHg 76%
07:00 +21°C° 0 mm 1 mps 752 mmHg 70%
08:00 +23°C° 0 mm 1 mps 752 mmHg 63%
09:00 +24°C° 0 mm 1 mps 752 mmHg 56%
10:00 +25°C° 0 mm 1 mps 752 mmHg 52%
11:00 +26°C° 0 mm 1 mps 752 mmHg 48%
12:00 +28°C° 0 mm 1 mps 752 mmHg 43%
13:00 +28°C° 0 mm 2 mps 752 mmHg 42%
14:00 +28°C° 0 mm 2 mps 752 mmHg 40%
15:00 +29°C° 0 mm 2 mps 752 mmHg 39%
16:00 +29°C° 0 mm 2 mps 751 mmHg 40%
17:00 +29°C° 0 mm 2 mps 751 mmHg 42%
18:00 +28°C° 0 mm 2 mps 751 mmHg 44%
19:00 +26°C° 0 mm 2 mps 751 mmHg 48%
20:00 +25°C° 0 mm 2 mps 752 mmHg 53%
21:00 +23°C° 0 mm 2 mps 752 mmHg 57%
22:00 +21°C° 0 mm 2 mps 752 mmHg 61%
23:00 +20°C° 0 mm 2 mps 752 mmHg 64%

19 July, Sunday

Time Temperature Precipitation Wind Pressure Humidity
00:00 +20°C° 0 mm 2 mps 752 mmHg 68%
01:00 +19°C° 0 mm 2 mps 752 mmHg 70%
02:00 +19°C° 0 mm 2 mps 752 mmHg 72%
03:00 +18°C° 0 mm 2 mps 752 mmHg 74%
04:00 +19°C° 0 mm 2 mps 752 mmHg 75%
05:00 +19°C° 0 mm 2 mps 752 mmHg 75%
06:00 +20°C° 0 mm 1 mps 752 mmHg 76%
07:00 +21°C° 0 mm 2 mps 752 mmHg 69%
08:00 +24°C° 0 mm 2 mps 752 mmHg 63%
09:00 +26°C° 0 mm 2 mps 751 mmHg 56%
10:00 +27°C° 0 mm 2 mps 751 mmHg 51%
11:00 +28°C° 0 mm 2 mps 751 mmHg 46%
12:00 +29°C° 0 mm 2 mps 751 mmHg 42%
13:00 +30°C° 0 mm 1 mps 750 mmHg 40%
14:00 +30°C° 0 mm 1 mps 750 mmHg 38%
15:00 +31°C° 0 mm 1 mps 750 mmHg 37%
16:00 +30°C° 0 mm 1 mps 749 mmHg 38%
17:00 +30°C° 0 mm 1 mps 749 mmHg 40%
18:00 +30°C° 0 mm 2 mps 749 mmHg 42%
19:00 +28°C° 0 mm 2 mps 749 mmHg 51%
20:00 +26°C° 0 mm 3 mps 748 mmHg 60%
21:00 +22°C° 0 mm 3 mps 748 mmHg 69%
22:00 +22°C° 0 mm 3 mps 748 mmHg 71%
23:00 +21°C° 0 mm 3 mps 748 mmHg 73%
Show more